Guymon, OK

9:24 AM CST on February 27, 2017 (GMT -0600)
Guymon Municipal

Weather History for KGUY - June, 2013

Change the Weather History Date:

Sunday, June 16, 2013

  Actual Average Record
Temperature  
Mean Temperature 77 °F 74 °F  
Max Temperature 92 °F 88 °F 108 °F (2011)
Min Temperature 62 °F 61 °F 50 °F (1999)
Degree Days  
Heating Degree Days 0 0  
Month to date heating degree days 0 6  
Since 1 June heating degree days 0 6  
Since 1 July heating degree days 4311 4455  
Cooling Degree Days 12 9  
Month to date cooling degree days 202 120  
Year to date cooling degree days 406 228  
Since 1 June cooling degree days 202 120  
Growing Degree Days 26 (Base 50)    
Moisture  
Dew Point 61 °F    
Average Humidity 61    
Maximum Humidity 84    
Minimum Humidity 38    
Precipitation  
Precipitation 1.30 in 0.10 in 1.30 in (2013)
Month to date precipitation 2.12 1.86  
Year to date precipitation 4.47 8.11  
Snow  
Snow 0.00 in - - ()
Month to date snowfall T  
Since 1 June snowfall T  
Since 1 July snowfall 22.3  
Snow Depth 0.00 in    
Sea Level Pressure  
Sea Level Pressure 29.94 in    
Wind  
Wind Speed 14 mph (East)    
Max Wind Speed 39 mph    
Max Gust Speed 55 mph    
Visibility 9 miles    
Events Rain , Thunderstorm    
T = Trace of Precipitation, MM = Missing Value Source: NWS Daily Summary

Daily Weather History Graph

Daily Weather History Graph

Search for Another Location

Airport or City:

Trip Planner

Search our weather history database for the weather conditions in past years. The results will help you decide how hot, cold, wet, or windy it might be!

Date:

Astronomy

Jun. 16, 2013 Rise Set
Actual Time 6:26 AM CDT 9:06 PM CDT
Civil Twilight 5:56 AM CDT 9:37 PM CDT
Nautical Twilight 5:18 AM CDT 10:15 PM CDT
Astronomical Twilight 4:35 AM CDT 10:58 PM CDT
Moon 1:53 PM CDT (6/16) 1:22 AM CDT (6/16)
Length of Visible Light 15h 41m
Length of Day
14h 39m
Waxing Crescent, 50% of the Moon is Illuminated
Jun 16
Waxing Crescent
Jun 16
First Quarter
Jun 23
Full
Jun 29
Last Quarter
Jul 8
New

Hourly Weather History & Observations

Time (CDT) Temp. Heat Index Dew Point Humidity Pressure Visibility Wind Dir Wind Speed Gust Speed Precip Events Conditions
12:21 AM 73.4 °F - 55.4 °F 53% 29.97 in 10.0 mi NNW 20.7 mph 31.1 mph 0.00 in Rain Light Rain
12:53 AM 72.0 °F - 57.0 °F 59% 29.86 in 10.0 mi WNW 13.8 mph - 0.00 in Thunderstorm Clear
1:24 AM 69.8 °F - 60.8 °F 73% 30.03 in 10.0 mi North 17.3 mph - 0.00 in Rain , Thunderstorm Light Thunderstorms and Rain
1:53 AM 66.9 °F - 61.0 °F 81% 29.94 in 10.0 mi NNE 21.9 mph 27.6 mph 0.02 in Rain , Thunderstorm Light Thunderstorms and Rain
2:48 AM 66.2 °F - 60.8 °F 83% 30.01 in 10.0 mi East 24.2 mph 32.2 mph 0.05 in Rain Light Rain
2:53 AM 66.0 °F - 60.1 °F 81% 29.86 in 10.0 mi East 21.9 mph 34.5 mph 0.05 in Rain Light Rain
3:53 AM 66.0 °F - 60.1 °F 81% 29.87 in 10.0 mi East 13.8 mph - 0.00 in   Mostly Cloudy
4:48 AM 64.4 °F - 60.8 °F 88% 30.12 in 2.0 mi East 8.1 mph - 0.14 in Rain , Thunderstorm Heavy Thunderstorms and Rain
4:53 AM 63.0 °F - 60.1 °F 90% 29.99 in 1.5 mi SE 11.5 mph 18.4 mph 0.41 in Rain , Thunderstorm Heavy Thunderstorms and Rain
4:58 AM 62.6 °F - 60.8 °F 94% 30.10 in 2.0 mi East 16.1 mph 21.9 mph 0.14 in Rain , Thunderstorm Heavy Thunderstorms and Rain
5:05 AM 62.6 °F - 60.8 °F 94% 30.11 in 6.0 mi ENE 11.5 mph - 0.17 in Rain , Thunderstorm Light Thunderstorms and Rain
5:16 AM 64.4 °F - 60.8 °F 88% 30.11 in 10.0 mi ENE 12.7 mph - 0.18 in Rain , Thunderstorm Light Thunderstorms and Rain
5:35 AM 62.6 °F - 60.8 °F 94% 30.08 in 9.0 mi East 13.8 mph 21.9 mph 0.31 in Rain Light Rain
5:45 AM 62.6 °F - 60.8 °F 94% 30.07 in 10.0 mi East 18.4 mph 24.2 mph 0.31 in Rain , Thunderstorm Light Rain
5:53 AM 64.0 °F - 59.0 °F 84% 29.93 in 10.0 mi East 17.3 mph 23.0 mph 0.31 in Rain , Thunderstorm Light Rain
6:50 AM 64.4 °F - 59.0 °F 83% 30.07 in 10.0 mi SE 16.1 mph 23.0 mph 0.02 in   Mostly Cloudy
6:53 AM 64.0 °F - 59.0 °F 84% 29.93 in 10.0 mi SE 13.8 mph 23.0 mph 0.02 in   Mostly Cloudy
7:53 AM 66.0 °F - 59.0 °F 78% 29.90 in 10.0 mi SE 15.0 mph 20.7 mph N/A   Clear
8:53 AM 69.1 °F - 61.0 °F 75% 29.91 in 10.0 mi South 4.6 mph - N/A   Clear
9:53 AM 72.0 °F - 63.0 °F 73% 29.90 in 10.0 mi South 17.3 mph 23.0 mph N/A   Clear
10:53 AM 78.1 °F - 63.0 °F 60% 29.87 in 10.0 mi South 17.3 mph 27.6 mph N/A   Clear
11:53 AM 79.0 °F - 61.0 °F 54% 29.89 in 10.0 mi South 17.3 mph 25.3 mph N/A   Clear
12:53 PM 84.9 °F 85.4 °F 62.1 °F 46% 29.89 in 10.0 mi South 12.7 mph 21.9 mph N/A   Clear
1:53 PM 86.0 °F 87.6 °F 64.9 °F 49% 29.88 in 10.0 mi South 12.7 mph - N/A   Partly Cloudy
2:53 PM 87.1 °F 88.3 °F 64.0 °F 46% 29.86 in 10.0 mi South 12.7 mph 21.9 mph N/A   Partly Cloudy
3:53 PM 89.1 °F 90.3 °F 64.0 °F 43% 29.83 in 10.0 mi South 11.5 mph 19.6 mph N/A   Scattered Clouds
4:53 PM 90.0 °F 90.3 °F 62.1 °F 39% 29.79 in 10.0 mi South 13.8 mph 20.7 mph N/A   Partly Cloudy
5:53 PM 91.9 °F 92.5 °F 62.1 °F 37% 29.77 in 10.0 mi SSE 13.8 mph 19.6 mph N/A   Clear
6:53 PM 90.0 °F 90.3 °F 62.1 °F 39% 29.74 in 10.0 mi SE 11.5 mph - N/A   Mostly Cloudy
7:18 PM 87.8 °F 88.5 °F 62.6 °F 43% 29.88 in 10.0 mi South 12.7 mph 20.7 mph 0.00 in Rain , Thunderstorm Light Rain
7:53 PM 81.0 °F 83.8 °F 68.0 °F 65% 29.78 in 10.0 mi ENE 15.0 mph - 0.00 in Rain , Thunderstorm Light Thunderstorms and Rain
8:53 PM 79.0 °F - 64.9 °F 62% 29.74 in 10.0 mi SE 16.1 mph 21.9 mph 0.00 in Thunderstorm Clear
9:44 PM 73.4 °F - 62.6 °F 69% 29.97 in 10.0 mi North 31.1 mph 55.2 mph N/A Thunderstorm Unknown
9:53 PM 68.0 °F - 63.0 °F 84% 29.88 in 10.0 mi North 18.4 mph 36.8 mph 0.00 in Rain , Thunderstorm Light Thunderstorms and Rain
10:03 PM 71.6 °F - 64.4 °F 78% 30.00 in 2.5 mi NNE 13.8 mph 32.2 mph 0.15 in Rain , Thunderstorm Heavy Thunderstorms and Rain
10:11 PM 68.0 °F - 64.4 °F 88% 30.01 in 3.0 mi NE 8.1 mph 19.6 mph 0.28 in Rain , Thunderstorm Heavy Thunderstorms and Rain
10:19 PM 66.2 °F - 64.4 °F 94% 30.00 in 7.0 mi North 26.5 mph 34.5 mph 0.31 in Rain , Thunderstorm Light Thunderstorms and Rain
10:43 PM 64.4 °F - 60.8 °F 88% 30.08 in 10.0 mi East 10.4 mph 20.7 mph 0.31 in Thunderstorm Thunderstorm
10:53 PM 64.9 °F - 60.1 °F 84% 29.94 in 10.0 mi NNE 11.5 mph 21.9 mph 0.31 in Thunderstorm Thunderstorm
11:04 PM 64.4 °F - 60.8 °F 88% 30.05 in 10.0 mi ENE 13.8 mph 21.9 mph N/A Thunderstorm Thunderstorm
11:17 PM 64.4 °F - 60.8 °F 88% 30.04 in 10.0 mi East 11.5 mph 21.9 mph N/A Thunderstorm Mostly Cloudy
11:53 PM 64.9 °F - 59.0 °F 81% 29.93 in 10.0 mi ENE 12.7 mph - 0.18 in Thunderstorm Thunderstorm